QPF
0.00 0.00 0.00 0.01 0.06 0.05 0.01 0.00 0.00 0.00 0.00 0.00 0.00 0.00 0.00 0.01 0.03 0.10 0.04 0.00 0.00 0.00 0.00 0.00 0.00 0.00 0.00 0.01 0.01 0.01 0.01 0.01 0.01 0.01 0.01 0.01 0.01 0.01 0.01 0.01 0.01 0.01 0.02 0.01 0.01 0.03 0.02 0.01 0.01
0.00 0.00 0.00 0.02 0.09 0.03 0.00 0.00 0.00 0.00 0.00 0.00 0.00 0.00 0.01 0.01 0.00 0.00 0.01 0.00 0.00 0.00 0.00 0.00 0.00 0.00 0.00 0.01 0.01 0.01 0.01 0.01 0.01 0.01 0.01 0.01 0.01 0.01 0.01 0.01 0.01 0.01 0.01 0.01 0.01 0.02 0.01 0.01 0.02
0.00 0.00 0.00 0.02 0.04 0.01 0.00 0.00 0.00 0.00 0.00 0.00 0.00 0.00 0.00 0.01 0.00 0.00 0.01 0.00 0.00 0.00 0.00 0.00 0.00 0.00 0.00 0.01 0.01 0.01 0.01 0.01 0.01 0.01 0.01 0.01 0.01 0.01 0.01 0.01 0.01 0.01 0.01 0.01 0.02 0.02 0.01 0.01 0.01
0.00 0.00 0.01 0.02 0.01 0.00 0.00 0.00 0.00 0.00 0.00 0.00 0.00 0.01 0.00 0.00 0.00 0.00 0.01 0.00 0.00 0.01 0.00 0.00 0.01 0.01 0.00 0.01 0.01 0.01 0.01 0.01 0.01 0.02 0.02 0.02 0.02 0.02 0.01 0.01 0.01 0.01 0.01 0.01 0.02 0.01 0.01 0.01 0.01
0.00 0.01 0.04 0.03 0.00 0.00 0.00 0.00 0.00 0.00 0.00 0.00 0.00 0.01 0.02 0.02 0.00 0.00 0.01 0.01 0.00 0.00 0.00 0.00 0.01 0.01 0.00 0.01 0.01 0.01 0.01 0.01 0.02 0.02 0.02 0.02 0.02 0.02 0.01 0.01 0.01 0.01 0.01 0.02 0.02 0.01 0.00 0.01 0.02
0.00 0.01 0.02 0.02 0.00 0.00 0.00 0.00 0.00 0.00 0.00 0.00 0.00 0.01 0.02 0.01 0.01 0.01 0.01 0.01 0.00 0.00 0.00 0.00 0.00 0.01 0.00 0.01 0.01 0.01 0.01 0.01 0.01 0.01 0.01 0.01 0.02 0.01 0.01 0.01 0.01 0.01 0.02 0.02 0.01 0.00 0.00 0.00 0.00
0.00 0.00 0.00 0.00 0.00 0.00 0.00 0.00 0.00 0.00 0.00 0.00 0.00 0.01 0.01 0.02 0.01 0.00 0.01 0.00 0.00 0.00 0.00 0.01 0.01 0.00 0.00 0.01 0.01 0.01 0.01 0.01 0.01 0.01 0.01 0.02 0.01 0.01 0.01 0.01 0.01 0.01 0.01 0.01 0.00 0.00 0.00 0.00 0.00
0.00 0.00 0.00 0.00 0.00 0.00 0.00 0.00 0.00 0.00 0.00 0.00 0.00 0.01 0.02 0.01 0.00 0.00 0.00 0.00 0.00 0.00 0.01 0.02 0.02 0.02 0.01 0.01 0.01 0.01 0.01 0.01 0.01 0.01 0.01 0.01 0.01 0.01 0.01 0.01 0.01 0.01 0.01 0.01 0.01 0.01 0.01 0.00 0.00
0.00 0.00 0.00 0.00 0.00 0.00 0.00 0.00 0.00 0.00 0.00 0.00 0.00 0.01 0.01 0.00 0.00 0.01 0.01 0.01 0.02 0.03 0.03 0.03 0.04 0.04 0.04 0.03 0.01 0.01 0.01 0.01 0.01 0.01 0.01 0.02 0.05 0.04 0.03 0.02 0.01 0.01 0.01 0.01 0.00 0.01 0.01 0.01 0.00
0.00 0.00 0.00 0.00 0.00 0.00 0.00 0.00 0.00 0.00 0.00 0.01 0.03 0.02 0.00 0.00 0.01 0.02 0.02 0.02 0.05 0.05 0.05 0.03 0.06 0.05 0.03 0.04 0.03 0.04 0.03 0.02 0.03 0.03 0.02 0.08 0.09 0.09 0.06 0.02 0.01 0.01 0.01 0.00 0.00 0.00 0.01 0.02 0.01
0.00 0.00 0.00 0.00 0.00 0.00 0.00 0.00 0.00 0.00 0.01 0.03 0.02 0.01 0.00 0.00 0.01 0.03 0.03 0.03 0.04 0.05 0.05 0.06 0.11 0.08 0.05 0.09 0.06 0.05 0.06 0.05 0.06 0.06 0.05 0.09 0.07 0.06 0.05 0.04 0.02 0.02 0.02 0.02 0.01 0.01 0.02 0.09 0.06
0.00 0.00 0.00 0.00 0.00 0.00 0.00 0.00 0.00 0.00 0.01 0.05 0.03 0.00 0.00 0.00 0.02 0.04 0.07 0.09 0.07 0.08 0.08 0.14 0.16 0.18 0.14 0.09 0.09 0.05 0.04 0.04 0.05 0.06 0.05 0.05 0.08 0.09 0.08 0.07 0.06 0.05 0.06 0.05 0.03 0.02 0.02 0.05 0.07
0.00 0.00 0.00 0.00 0.00 0.00 0.00 0.00 0.00 0.00 0.00 0.00 0.00 0.00 0.00 0.01 0.02 0.05 0.09 0.12 0.13 0.14 0.14 0.22 0.22 0.22 0.27 0.21 0.15 0.08 0.06 0.05 0.04 0.05 0.06 0.05 0.06 0.09 0.09 0.09 0.07 0.06 0.05 0.05 0.04 0.03 0.02 0.02 0.03
0.00 0.00 0.00 0.00 0.00 0.00 0.00 0.00 0.01 0.02 0.01 0.00 0.00 0.00 0.00 0.02 0.03 0.08 0.13 0.14 0.18 0.23 0.20 0.24 0.25 0.23 0.27 0.30 0.25 0.16 0.09 0.07 0.07 0.06 0.05 0.04 0.06 0.07 0.08 0.07 0.08 0.06 0.04 0.03 0.03 0.03 0.03 0.02 0.01
0.00 0.00 0.00 0.00 0.00 0.00 0.00 0.00 0.02 0.01 0.00 0.00 0.00 0.00 0.00 0.01 0.06 0.16 0.15 0.13 0.19 0.31 0.29 0.28 0.25 0.26 0.25 0.26 0.24 0.16 0.10 0.06 0.07 0.08 0.08 0.05 0.05 0.06 0.05 0.06 0.05 0.04 0.03 0.02 0.02 0.03 0.03 0.03 0.02
0.00 0.00 0.00 0.00 0.00 0.00 0.00 0.00 0.02 0.02 0.00 0.00 0.00 0.00 0.00 0.01 0.05 0.14 0.13 0.18 0.20 0.23 0.27 0.32 0.23 0.22 0.27 0.23 0.23 0.21 0.15 0.12 0.09 0.09 0.09 0.06 0.05 0.03 0.04 0.04 0.03 0.03 0.02 0.01 0.01 0.01 0.03 0.03 0.04
0.00 0.00 0.00 0.00 0.00 0.00 0.00 0.00 0.00 0.01 0.00 0.00 0.00 0.00 0.00 0.02 0.03 0.07 0.11 0.16 0.18 0.20 0.26 0.31 0.31 0.22 0.22 0.22 0.22 0.22 0.19 0.16 0.12 0.08 0.06 0.05 0.04 0.02 0.02 0.03 0.03 0.02 0.01 0.01 0.01 0.01 0.03 0.04 0.03
0.00 0.00 0.00 0.00 0.00 0.00 0.00 0.00 0.00 0.00 0.00 0.00 0.00 0.00 0.01 0.02 0.04 0.05 0.08 0.13 0.18 0.20 0.25 0.25 0.27 0.26 0.21 0.20 0.19 0.23 0.19 0.16 0.15 0.11 0.09 0.05 0.04 0.03 0.03 0.02 0.02 0.01 0.01 0.04 0.03 0.02 0.02 0.03 0.02
0.00 0.00 0.00 0.00 0.00 0.00 0.00 0.00 0.00 0.00 0.00 0.00 0.00 0.01 0.01 0.01 0.03 0.04 0.07 0.11 0.14 0.14 0.17 0.21 0.21 0.22 0.20 0.18 0.16 0.19 0.19 0.14 0.14 0.10 0.08 0.05 0.04 0.03 0.03 0.03 0.03 0.02 0.03 0.05 0.05 0.03 0.03 0.03 0.02
0.00 0.00 0.00 0.00 0.00 0.00 0.00 0.00 0.00 0.01 0.00 0.00 0.00 0.01 0.01 0.02 0.02 0.04 0.07 0.08 0.09 0.09 0.11 0.15 0.17 0.13 0.13 0.15 0.15 0.18 0.20 0.15 0.12 0.10 0.10 0.06 0.04 0.02 0.02 0.04 0.03 0.03 0.04 0.03 0.03 0.04 0.03 0.02 0.01
0.00 0.00 0.00 0.00 0.00 0.00 0.00 0.01 0.01 0.03 0.01 0.00 0.00 0.00 0.01 0.01 0.02 0.02 0.04 0.05 0.07 0.08 0.07 0.08 0.10 0.11 0.11 0.16 0.15 0.18 0.20 0.18 0.14 0.12 0.09 0.07 0.05 0.03 0.03 0.02 0.03 0.04 0.03 0.03 0.03 0.02 0.02 0.02 0.01
0.00 0.00 0.00 0.00 0.00 0.00 0.00 0.01 0.02 0.03 0.02 0.01 0.00 0.00 0.00 0.00 0.01 0.02 0.04 0.05 0.05 0.06 0.07 0.09 0.11 0.14 0.13 0.14 0.14 0.14 0.14 0.13 0.11 0.09 0.07 0.06 0.06 0.05 0.03 0.03 0.03 0.03 0.02 0.03 0.01 0.02 0.01 0.01 0.01
0.00 0.00 0.00 0.00 0.00 0.00 0.00 0.01 0.01 0.01 0.01 0.01 0.00 0.00 0.00 0.00 0.02 0.03 0.05 0.05 0.05 0.05 0.06 0.09 0.11 0.14 0.15 0.14 0.13 0.15 0.14 0.12 0.10 0.09 0.09 0.06 0.05 0.05 0.03 0.03 0.04 0.03 0.02 0.02 0.01 0.02 0.01 0.01 0.01
0.00 0.00 0.00 0.00 0.00 0.01 0.01 0.02 0.01 0.00 0.00 0.00 0.00 0.00 0.00 0.00 0.01 0.03 0.06 0.06 0.05 0.04 0.05 0.09 0.10 0.11 0.14 0.14 0.15 0.14 0.14 0.14 0.12 0.09 0.08 0.06 0.04 0.04 0.03 0.03 0.04 0.03 0.03 0.03 0.02 0.01 0.01 0.00 0.01
0.00 0.00 0.00 0.01 0.03 0.04 0.03 0.02 0.01 0.00 0.00 0.00 0.00 0.00 0.00 0.00 0.00 0.03 0.05 0.04 0.04 0.04 0.04 0.07 0.11 0.11 0.13 0.14 0.19 0.17 0.15 0.15 0.11 0.08 0.07 0.06 0.05 0.03 0.03 0.03 0.03 0.03 0.03 0.03 0.02 0.02 0.02 0.01 0.01
0.00 0.00 0.00 0.01 0.03 0.06 0.04 0.02 0.01 0.00 0.00 0.00 0.00 0.00 0.00 0.00 0.00 0.01 0.03 0.03 0.03 0.04 0.04 0.07 0.10 0.10 0.12 0.14 0.17 0.17 0.14 0.14 0.11 0.09 0.06 0.06 0.05 0.04 0.03 0.02 0.02 0.02 0.02 0.02 0.02 0.02 0.02 0.01 0.01
0.00 0.00 0.00 0.00 0.00 0.01 0.02 0.01 0.01 0.00 0.00 0.00 0.00 0.00 0.00 0.00 0.00 0.00 0.01 0.02 0.02 0.04 0.07 0.08 0.10 0.11 0.12 0.14 0.15 0.15 0.14 0.14 0.15 0.12 0.08 0.06 0.06 0.04 0.05 0.02 0.02 0.02 0.03 0.03 0.03 0.02 0.02 0.02 0.01
0.00 0.00 0.00 0.00 0.00 0.01 0.01 0.02 0.04 0.02 0.01 0.00 0.00 0.00 0.00 0.00 0.00 0.00 0.00 0.01 0.02 0.02 0.06 0.09 0.09 0.10 0.11 0.11 0.10 0.10 0.14 0.12 0.11 0.10 0.07 0.09 0.07 0.06 0.06 0.04 0.02 0.02 0.02 0.02 0.03 0.03 0.03 0.03 0.02
0.00 0.00 0.00 0.00 0.00 0.01 0.02 0.04 0.04 0.02 0.01 0.00 0.00 0.00 0.00 0.00 0.00 0.00 0.01 0.01 0.02 0.02 0.03 0.06 0.08 0.10 0.09 0.09 0.10 0.15 0.15 0.13 0.10 0.08 0.07 0.08 0.08 0.07 0.07 0.05 0.04 0.03 0.02 0.03 0.04 0.03 0.03 0.02 0.02
0.00 0.00 0.00 0.00 0.00 0.00 0.02 0.04 0.02 0.01 0.01 0.00 0.00 0.00 0.00 0.00 0.00 0.00 0.00 0.01 0.01 0.01 0.02 0.05 0.04 0.05 0.05 0.08 0.10 0.09 0.09 0.11 0.12 0.10 0.08 0.07 0.06 0.05 0.05 0.05 0.04 0.04 0.04 0.05 0.04 0.03 0.03 0.03 0.03
MSLP
1006.57 1007.39 1008.23 1008.91 1009.30 1009.30 1008.94 1008.31 1007.56 1006.85 1006.32 1006.04 1006.01 1006.18 1006.45 1006.70 1006.87 1006.93 1006.92 1006.91 1006.99 1007.24 1007.68 1008.32 1009.07 1009.85 1010.56 1011.11 1011.50 1011.73 1011.85 1011.94 1012.06 1012.27 1012.57 1012.94 1013.31 1013.65 1013.91 1014.06 1014.12 1014.13 1014.12 1014.14 1014.21 1014.34 1014.52 1014.74 1014.96
1006.77 1007.71 1008.60 1009.25 1009.53 1009.38 1008.85 1008.05 1007.15 1006.32 1005.71 1005.38 1005.33 1005.49 1005.75 1006.00 1006.19 1006.29 1006.34 1006.42 1006.61 1006.98 1007.56 1008.31 1009.17 1010.02 1010.76 1011.34 1011.73 1011.95 1012.08 1012.17 1012.31 1012.54 1012.85 1013.21 1013.58 1013.89 1014.11 1014.23 1014.27 1014.26 1014.26 1014.29 1014.38 1014.53 1014.73 1014.95 1015.17
1007.08 1008.08 1008.95 1009.51 1009.64 1009.32 1008.61 1007.66 1006.63 1005.73 1005.07 1004.72 1004.67 1004.83 1005.10 1005.37 1005.58 1005.72 1005.83 1006.00 1006.30 1006.79 1007.48 1008.33 1009.26 1010.15 1010.92 1011.51 1011.90 1012.14 1012.27 1012.38 1012.55 1012.79 1013.10 1013.46 1013.81 1014.09 1014.29 1014.39 1014.42 1014.42 1014.44 1014.50 1014.62 1014.80 1015.01 1015.22 1015.42
1007.42 1008.41 1009.19 1009.60 1009.56 1009.06 1008.20 1007.12 1006.03 1005.10 1004.45 1004.13 1004.10 1004.28 1004.56 1004.85 1005.09 1005.27 1005.45 1005.70 1006.09 1006.68 1007.46 1008.38 1009.35 1010.27 1011.05 1011.63 1012.02 1012.26 1012.41 1012.54 1012.73 1012.99 1013.31 1013.66 1013.99 1014.26 1014.44 1014.54 1014.58 1014.62 1014.68 1014.79 1014.95 1015.15 1015.36 1015.55 1015.70
1007.72 1008.60 1009.23 1009.46 1009.23 1008.57 1007.60 1006.47 1005.38 1004.50 1003.91 1003.65 1003.68 1003.90 1004.20 1004.50 1004.75 1004.96 1005.19 1005.50 1005.97 1006.64 1007.48 1008.45 1009.45 1010.37 1011.14 1011.71 1012.09 1012.33 1012.49 1012.65 1012.86 1013.14 1013.47 1013.82 1014.14 1014.40 1014.58 1014.69 1014.77 1014.85 1014.96 1015.13 1015.33 1015.55 1015.74 1015.89 1015.99
1007.89 1008.60 1009.02 1009.04 1008.64 1007.87 1006.85 1005.75 1004.74 1003.96 1003.49 1003.33 1003.43 1003.69 1004.01 1004.30 1004.55 1004.77 1005.02 1005.38 1005.91 1006.63 1007.53 1008.52 1009.53 1010.44 1011.19 1011.74 1012.11 1012.35 1012.52 1012.70 1012.93 1013.23 1013.58 1013.94 1014.26 1014.52 1014.71 1014.85 1014.96 1015.09 1015.25 1015.46 1015.69 1015.91 1016.09 1016.19 1016.23
1007.89 1008.38 1008.57 1008.39 1007.84 1007.01 1006.01 1005.00 1004.14 1003.53 1003.22 1003.18 1003.36 1003.64 1003.95 1004.22 1004.44 1004.64 1004.90 1005.28 1005.85 1006.61 1007.54 1008.56 1009.57 1010.47 1011.20 1011.74 1012.09 1012.33 1012.52 1012.72 1012.98 1013.31 1013.67 1014.04 1014.37 1014.64 1014.83 1014.99 1015.13 1015.29 1015.49 1015.72 1015.97 1016.18 1016.33 1016.38 1016.36
1007.72 1007.97 1007.93 1007.57 1006.92 1006.08 1005.17 1004.31 1003.64 1003.22 1003.08 1003.16 1003.40 1003.69 1003.96 1004.17 1004.33 1004.49 1004.73 1005.13 1005.72 1006.53 1007.49 1008.53 1009.55 1010.45 1011.17 1011.69 1012.05 1012.29 1012.50 1012.73 1013.02 1013.37 1013.76 1014.14 1014.47 1014.74 1014.94 1015.10 1015.25 1015.42 1015.63 1015.86 1016.10 1016.29 1016.41 1016.42 1016.36
1007.41 1007.43 1007.19 1006.69 1005.99 1005.19 1004.40 1003.72 1003.25 1003.03 1003.04 1003.22 1003.48 1003.75 1003.95 1004.09 1004.17 1004.28 1004.49 1004.89 1005.51 1006.34 1007.34 1008.41 1009.45 1010.35 1011.08 1011.61 1011.98 1012.24 1012.47 1012.73 1013.05 1013.43 1013.84 1014.23 1014.57 1014.84 1015.03 1015.18 1015.32 1015.47 1015.65 1015.86 1016.07 1016.23 1016.32 1016.32 1016.23
1007.02 1006.85 1006.45 1005.87 1005.16 1004.43 1003.77 1003.28 1002.99 1002.94 1003.06 1003.30 1003.55 1003.77 1003.89 1003.92 1003.92 1003.97 1004.16 1004.56 1005.21 1006.08 1007.11 1008.22 1009.28 1010.21 1010.95 1011.50 1011.89 1012.18 1012.44 1012.73 1013.08 1013.48 1013.90 1014.30 1014.65 1014.91 1015.09 1015.21 1015.31 1015.43 1015.57 1015.74 1015.91 1016.05 1016.12 1016.11 1016.03
1006.64 1006.32 1005.82 1005.18 1004.50 1003.85 1003.32 1002.98 1002.84 1002.90 1003.10 1003.34 1003.56 1003.70 1003.73 1003.68 1003.61 1003.62 1003.79 1004.20 1004.87 1005.78 1006.86 1008.00 1009.09 1010.04 1010.81 1011.38 1011.79 1012.11 1012.39 1012.71 1013.08 1013.50 1013.93 1014.34 1014.68 1014.94 1015.10 1015.20 1015.26 1015.33 1015.43 1015.55 1015.68 1015.80 1015.87 1015.88 1015.84
1006.32 1005.91 1005.35 1004.70 1004.05 1003.48 1003.05 1002.82 1002.78 1002.90 1003.10 1003.33 1003.50 1003.56 1003.52 1003.41 1003.30 1003.29 1003.47 1003.90 1004.60 1005.54 1006.65 1007.82 1008.93 1009.90 1010.69 1011.28 1011.71 1012.04 1012.34 1012.67 1013.04 1013.47 1013.91 1014.32 1014.66 1014.91 1015.07 1015.14 1015.18 1015.21 1015.26 1015.35 1015.46 1015.57 1015.66 1015.72 1015.74
1006.11 1005.65 1005.06 1004.42 1003.81 1003.30 1002.95 1002.77 1002.77 1002.89 1003.08 1003.27 1003.38 1003.40 1003.32 1003.18 1003.08 1003.09 1003.30 1003.77 1004.50 1005.46 1006.58 1007.75 1008.87 1009.85 1010.63 1011.23 1011.66 1011.99 1012.29 1012.61 1012.97 1013.39 1013.82 1014.23 1014.58 1014.83 1015.00 1015.07 1015.10 1015.11 1015.14 1015.21 1015.32 1015.44 1015.57 1015.68 1015.78
1006.03 1005.55 1004.97 1004.35 1003.77 1003.30 1002.98 1002.81 1002.80 1002.90 1003.05 1003.19 1003.27 1003.27 1003.20 1003.11 1003.05 1003.12 1003.39 1003.90 1004.66 1005.62 1006.72 1007.87 1008.96 1009.91 1010.68 1011.26 1011.67 1011.99 1012.26 1012.55 1012.88 1013.27 1013.68 1014.08 1014.44 1014.72 1014.90 1015.00 1015.05 1015.07 1015.11 1015.18 1015.30 1015.45 1015.63 1015.81 1015.98
1006.06 1005.57 1005.00 1004.41 1003.87 1003.42 1003.11 1002.93 1002.89 1002.94 1003.04 1003.14 1003.22 1003.25 1003.24 1003.23 1003.28 1003.44 1003.78 1004.33 1005.09 1006.04 1007.09 1008.18 1009.21 1010.11 1010.83 1011.37 1011.76 1012.04 1012.27 1012.51 1012.80 1013.14 1013.53 1013.92 1014.28 1014.59 1014.81 1014.96 1015.05 1015.10 1015.17 1015.26 1015.40 1015.59 1015.81 1016.06 1016.30
1006.14 1005.67 1005.13 1004.58 1004.08 1003.66 1003.34 1003.14 1003.04 1003.03 1003.09 1003.18 1003.27 1003.37 1003.46 1003.57 1003.74 1004.02 1004.44 1005.02 1005.77 1006.66 1007.64 1008.64 1009.58 1010.40 1011.06 1011.56 1011.90 1012.15 1012.34 1012.53 1012.76 1013.06 1013.40 1013.78 1014.15 1014.48 1014.76 1014.96 1015.10 1015.21 1015.31 1015.44 1015.60 1015.82 1016.08 1016.37 1016.67
1006.24 1005.79 1005.31 1004.83 1004.38 1003.99 1003.67 1003.44 1003.28 1003.22 1003.23 1003.30 1003.43 1003.60 1003.82 1004.07 1004.38 1004.77 1005.26 1005.86 1006.58 1007.39 1008.26 1009.14 1009.98 1010.71 1011.31 1011.77 1012.08 1012.30 1012.46 1012.61 1012.80 1013.04 1013.35 1013.70 1014.07 1014.44 1014.76 1015.02 1015.22 1015.38 1015.52 1015.67 1015.85 1016.08 1016.36 1016.68 1017.01
1006.30 1005.91 1005.52 1005.13 1004.77 1004.43 1004.12 1003.86 1003.64 1003.51 1003.46 1003.51 1003.66 1003.90 1004.23 1004.61 1005.06 1005.55 1006.10 1006.70 1007.36 1008.08 1008.83 1009.58 1010.30 1010.96 1011.50 1011.94 1012.25 1012.46 1012.61 1012.75 1012.90 1013.11 1013.38 1013.71 1014.08 1014.46 1014.82 1015.13 1015.38 1015.59 1015.76 1015.92 1016.11 1016.33 1016.60 1016.92 1017.26
1006.30 1006.00 1005.74 1005.50 1005.25 1004.99 1004.70 1004.40 1004.12 1003.89 1003.76 1003.76 1003.90 1004.18 1004.58 1005.07 1005.62 1006.20 1006.78 1007.37 1007.98 1008.59 1009.22 1009.85 1010.47 1011.05 1011.56 1011.99 1012.33 1012.58 1012.76 1012.91 1013.06 1013.25 1013.50 1013.82 1014.18 1014.56 1014.94 1015.28 1015.57 1015.80 1015.99 1016.16 1016.33 1016.53 1016.78 1017.08 1017.41
1006.21 1006.06 1005.98 1005.92 1005.82 1005.65 1005.40 1005.06 1004.68 1004.34 1004.08 1003.98 1004.06 1004.33 1004.77 1005.32 1005.94 1006.58 1007.19 1007.77 1008.31 1008.83 1009.35 1009.87 1010.40 1010.93 1011.44 1011.90 1012.29 1012.60 1012.85 1013.05 1013.23 1013.44 1013.68 1013.98 1014.32 1014.70 1015.09 1015.44 1015.75 1016.00 1016.20 1016.36 1016.51 1016.68 1016.90 1017.16 1017.47
1006.05 1006.10 1006.24 1006.39 1006.47 1006.40 1006.17 1005.79 1005.30 1004.79 1004.37 1004.12 1004.09 1004.30 1004.72 1005.30 1005.96 1006.64 1007.27 1007.84 1008.34 1008.78 1009.21 1009.65 1010.12 1010.61 1011.13 1011.63 1012.10 1012.50 1012.84 1013.13 1013.37 1013.60 1013.86 1014.15 1014.49 1014.85 1015.23 1015.59 1015.90 1016.16 1016.36 1016.52 1016.65 1016.80 1016.98 1017.21 1017.49
1005.82 1006.11 1006.50 1006.88 1007.14 1007.19 1006.98 1006.52 1005.90 1005.21 1004.58 1004.14 1003.95 1004.05 1004.42 1004.99 1005.69 1006.40 1007.07 1007.64 1008.12 1008.52 1008.89 1009.26 1009.68 1010.15 1010.68 1011.23 1011.78 1012.29 1012.74 1013.11 1013.43 1013.72 1014.00 1014.29 1014.62 1014.97 1015.33 1015.69 1016.00 1016.27 1016.47 1016.64 1016.77 1016.90 1017.06 1017.27 1017.52
1005.56 1006.10 1006.74 1007.35 1007.78 1007.92 1007.72 1007.19 1006.42 1005.53 1004.69 1004.04 1003.68 1003.66 1003.96 1004.51 1005.23 1005.98 1006.70 1007.31 1007.80 1008.18 1008.51 1008.84 1009.22 1009.67 1010.20 1010.80 1011.41 1012.01 1012.55 1013.02 1013.42 1013.76 1014.07 1014.38 1014.69 1015.03 1015.38 1015.72 1016.04 1016.31 1016.54 1016.72 1016.87 1017.01 1017.17 1017.37 1017.60
1005.27 1006.05 1006.93 1007.73 1008.30 1008.52 1008.32 1007.71 1006.80 1005.74 1004.70 1003.86 1003.34 1003.21 1003.44 1003.98 1004.73 1005.54 1006.32 1006.99 1007.51 1007.91 1008.23 1008.53 1008.87 1009.30 1009.82 1010.42 1011.07 1011.73 1012.34 1012.89 1013.35 1013.74 1014.09 1014.40 1014.71 1015.03 1015.36 1015.69 1016.01 1016.30 1016.56 1016.77 1016.95 1017.12 1017.29 1017.49 1017.72
1004.98 1005.95 1007.01 1007.97 1008.65 1008.92 1008.71 1008.05 1007.03 1005.83 1004.65 1003.67 1003.03 1002.80 1003.00 1003.55 1004.33 1005.22 1006.07 1006.82 1007.40 1007.84 1008.16 1008.44 1008.75 1009.13 1009.62 1010.20 1010.85 1011.53 1012.18 1012.77 1013.28 1013.71 1014.07 1014.39 1014.69 1014.99 1015.30 1015.62 1015.94 1016.25 1016.53 1016.78 1017.01 1017.21 1017.41 1017.62 1017.83
1004.70 1005.80 1006.97 1008.01 1008.76 1009.06 1008.85 1008.16 1007.10 1005.82 1004.56 1003.51 1002.81 1002.55 1002.73 1003.30 1004.14 1005.10 1006.04 1006.87 1007.52 1008.00 1008.35 1008.62 1008.89 1009.23 1009.66 1010.20 1010.82 1011.48 1012.13 1012.73 1013.26 1013.70 1014.06 1014.37 1014.66 1014.94 1015.22 1015.53 1015.85 1016.17 1016.47 1016.76 1017.02 1017.26 1017.48 1017.69 1017.90
1004.45 1005.59 1006.80 1007.87 1008.62 1008.94 1008.74 1008.06 1007.00 1005.74 1004.49 1003.43 1002.74 1002.49 1002.69 1003.29 1004.18 1005.20 1006.21 1007.11 1007.83 1008.37 1008.74 1009.01 1009.26 1009.55 1009.93 1010.41 1010.97 1011.59 1012.21 1012.79 1013.31 1013.74 1014.10 1014.39 1014.65 1014.90 1015.16 1015.45 1015.75 1016.06 1016.38 1016.68 1016.97 1017.23 1017.46 1017.68 1017.87
1004.26 1005.37 1006.53 1007.55 1008.28 1008.58 1008.40 1007.77 1006.79 1005.60 1004.43 1003.45 1002.82 1002.61 1002.85 1003.47 1004.39 1005.44 1006.50 1007.45 1008.22 1008.81 1009.21 1009.50 1009.75 1010.01 1010.35 1010.77 1011.27 1011.83 1012.40 1012.94 1013.43 1013.84 1014.17 1014.44 1014.67 1014.90 1015.12 1015.38 1015.65 1015.95 1016.26 1016.56 1016.85 1017.11 1017.34 1017.54 1017.71
1004.17 1005.17 1006.21 1007.12 1007.77 1008.04 1007.89 1007.34 1006.47 1005.43 1004.40 1003.55 1003.01 1002.86 1003.13 1003.76 1004.66 1005.70 1006.76 1007.72 1008.53 1009.15 1009.60 1009.93 1010.19 1010.46 1010.77 1011.16 1011.61 1012.11 1012.63 1013.13 1013.57 1013.94 1014.24 1014.49 1014.70 1014.89 1015.09 1015.31 1015.55 1015.82 1016.10 1016.38 1016.65 1016.89 1017.10 1017.27 1017.41
1004.22 1005.05 1005.90 1006.65 1007.18 1007.40 1007.27 1006.81 1006.09 1005.22 1004.37 1003.67 1003.24 1003.15 1003.43 1004.02 1004.87 1005.85 1006.86 1007.80 1008.60 1009.25 1009.75 1010.13 1010.44 1010.74 1011.07 1011.45 1011.87 1012.33 1012.80 1013.24 1013.64 1013.98 1014.25 1014.48 1014.66 1014.84 1015.01 1015.21 1015.42 1015.66 1015.91 1016.15 1016.38 1016.59 1016.77 1016.91 1017.03
Thickness
5837 5839 5838 5831 5808 5798 5802 5826 5836 5832 5831 5840 5842 5836 5824 5813 5800 5786 5820 5832 5824 5811 5801 5795 5792 5789 5786 5784 5781 5779 5776 5774 5772 5770 5768 5767 5765 5764 5762 5761 5759 5758 5757 5755 5754 5753 5752 5751 5750
5842 5845 5839 5824 5797 5786 5803 5832 5831 5832 5838 5845 5844 5838 5824 5817 5827 5824 5827 5827 5821 5809 5800 5795 5790 5787 5784 5782 5779 5777 5774 5772 5770 5768 5767 5765 5763 5762 5760 5759 5758 5756 5755 5753 5752 5751 5750 5748 5748
5842 5846 5829 5816 5800 5800 5811 5835 5837 5843 5848 5843 5837 5838 5827 5818 5827 5827 5829 5827 5819 5808 5800 5791 5788 5784 5782 5779 5777 5775 5773 5770 5769 5766 5765 5763 5761 5760 5758 5757 5755 5754 5753 5751 5750 5749 5747 5746 5746
5841 5839 5829 5813 5808 5830 5838 5843 5846 5842 5844 5845 5837 5826 5826 5833 5835 5833 5831 5826 5815 5805 5797 5788 5785 5782 5779 5777 5774 5773 5771 5768 5766 5764 5763 5761 5760 5758 5756 5755 5753 5752 5751 5749 5748 5747 5745 5745 5744
5842 5827 5809 5802 5817 5840 5854 5855 5851 5840 5838 5841 5837 5819 5816 5832 5840 5835 5829 5823 5813 5804 5795 5786 5782 5779 5776 5774 5772 5770 5768 5766 5764 5763 5761 5759 5758 5756 5754 5753 5751 5750 5749 5747 5746 5744 5744 5743 5743
5829 5823 5800 5800 5821 5845 5856 5859 5854 5843 5841 5842 5837 5820 5814 5829 5829 5829 5827 5820 5814 5804 5793 5784 5780 5776 5773 5771 5769 5767 5766 5764 5762 5760 5759 5757 5756 5754 5752 5750 5749 5748 5747 5745 5744 5743 5742 5741 5741
5821 5815 5808 5817 5826 5839 5853 5862 5852 5844 5838 5841 5843 5819 5811 5822 5828 5828 5824 5819 5813 5804 5792 5783 5778 5774 5770 5768 5766 5765 5763 5761 5760 5758 5757 5755 5754 5752 5750 5748 5747 5746 5745 5744 5743 5741 5740 5740 5740
5836 5821 5814 5824 5829 5837 5856 5861 5860 5851 5843 5855 5850 5819 5806 5820 5829 5827 5821 5815 5809 5801 5791 5784 5778 5773 5769 5766 5764 5762 5760 5759 5758 5756 5755 5753 5752 5750 5748 5747 5745 5744 5743 5742 5741 5740 5739 5739 5739
5840 5813 5808 5825 5837 5844 5859 5855 5860 5865 5854 5849 5846 5837 5830 5832 5829 5820 5813 5807 5802 5797 5791 5785 5779 5773 5770 5766 5763 5760 5758 5756 5755 5754 5753 5752 5751 5750 5747 5746 5744 5743 5742 5741 5740 5740 5739 5738 5739
5832 5811 5820 5846 5856 5855 5857 5854 5857 5854 5843 5838 5832 5831 5835 5830 5823 5814 5806 5800 5795 5790 5788 5786 5780 5774 5771 5768 5762 5759 5757 5755 5755 5754 5753 5752 5752 5750 5748 5745 5744 5743 5742 5741 5740 5740 5739 5738 5739
5833 5824 5838 5852 5861 5859 5854 5856 5863 5849 5832 5834 5828 5826 5830 5825 5818 5811 5805 5801 5795 5790 5786 5783 5779 5772 5770 5766 5761 5760 5758 5755 5755 5754 5754 5753 5752 5750 5747 5745 5743 5742 5742 5741 5741 5741 5741 5740 5740
5834 5839 5847 5851 5859 5856 5853 5855 5854 5850 5844 5852 5846 5839 5831 5823 5816 5810 5803 5798 5794 5787 5782 5777 5775 5770 5766 5762 5761 5760 5758 5755 5756 5754 5754 5753 5752 5751 5749 5747 5745 5744 5744 5743 5743 5743 5742 5742 5740
5835 5839 5849 5856 5857 5857 5855 5850 5848 5846 5856 5858 5851 5840 5830 5823 5817 5811 5805 5797 5790 5782 5777 5774 5770 5765 5762 5759 5758 5759 5758 5756 5756 5754 5753 5752 5751 5750 5748 5747 5746 5745 5745 5743 5743 5743 5742 5741 5740
5840 5844 5847 5852 5854 5856 5849 5848 5845 5840 5851 5850 5843 5835 5828 5821 5815 5808 5799 5790 5783 5776 5772 5770 5766 5761 5757 5754 5753 5755 5757 5756 5756 5754 5752 5751 5750 5749 5747 5746 5745 5745 5744 5743 5742 5741 5741 5740 5740
5844 5834 5836 5844 5850 5855 5850 5833 5835 5842 5848 5842 5838 5831 5824 5818 5812 5804 5796 5788 5781 5774 5769 5765 5761 5758 5754 5751 5750 5753 5754 5754 5754 5752 5751 5750 5749 5747 5746 5746 5745 5745 5744 5743 5741 5741 5740 5739 5738
5832 5822 5813 5835 5849 5855 5840 5815 5835 5846 5843 5837 5833 5827 5819 5812 5808 5801 5795 5787 5780 5772 5765 5761 5758 5755 5752 5750 5749 5751 5752 5752 5753 5751 5750 5748 5747 5747 5746 5745 5744 5744 5744 5742 5741 5741 5739 5738 5737
5815 5808 5811 5829 5850 5852 5840 5823 5839 5848 5843 5834 5830 5824 5816 5807 5802 5798 5792 5784 5777 5770 5764 5758 5755 5752 5750 5748 5746 5747 5749 5750 5750 5750 5749 5747 5746 5746 5745 5744 5744 5743 5743 5742 5741 5739 5738 5736 5735
5802 5812 5816 5824 5844 5845 5833 5831 5840 5847 5843 5835 5829 5822 5812 5803 5798 5795 5789 5782 5775 5768 5762 5757 5753 5750 5748 5745 5743 5744 5745 5746 5748 5748 5747 5746 5745 5745 5745 5744 5743 5743 5742 5740 5738 5737 5736 5735 5734
5816 5815 5816 5828 5849 5839 5829 5829 5837 5841 5838 5832 5825 5815 5808 5802 5800 5794 5786 5780 5772 5765 5759 5755 5751 5748 5745 5743 5740 5739 5739 5742 5744 5745 5745 5745 5745 5744 5744 5744 5742 5742 5740 5739 5737 5736 5734 5734 5735
5816 5809 5814 5829 5843 5835 5825 5825 5836 5836 5831 5830 5822 5812 5807 5801 5795 5788 5782 5777 5771 5764 5759 5754 5750 5748 5746 5744 5742 5740 5740 5740 5741 5743 5744 5744 5744 5743 5743 5742 5741 5740 5739 5738 5737 5735 5733 5734 5735
5810 5807 5810 5814 5827 5833 5820 5811 5816 5825 5829 5827 5826 5819 5812 5802 5794 5786 5780 5775 5770 5763 5759 5756 5752 5749 5747 5745 5742 5740 5737 5737 5737 5739 5741 5742 5742 5742 5743 5741 5741 5740 5739 5736 5736 5735 5732 5731 5734
5800 5818 5818 5815 5807 5804 5811 5786 5804 5814 5812 5815 5820 5817 5811 5805 5798 5788 5781 5775 5770 5766 5762 5758 5753 5750 5747 5744 5741 5738 5735 5734 5737 5738 5739 5741 5741 5740 5740 5740 5740 5739 5739 5737 5736 5736 5736 5733 5730
5810 5823 5818 5813 5803 5796 5803 5790 5799 5810 5799 5808 5818 5817 5813 5807 5799 5789 5782 5777 5772 5768 5763 5758 5754 5750 5747 5744 5742 5739 5737 5738 5738 5738 5737 5738 5739 5739 5739 5739 5739 5738 5737 5737 5737 5736 5735 5734 5732
5821 5815 5811 5806 5795 5772 5786 5783 5788 5806 5806 5814 5818 5816 5812 5807 5800 5791 5784 5778 5772 5769 5764 5759 5753 5750 5748 5745 5743 5740 5738 5737 5736 5735 5734 5735 5736 5737 5738 5738 5737 5737 5737 5736 5735 5735 5734 5733 5733
5813 5791 5771 5764 5760 5761 5783 5778 5793 5818 5827 5825 5820 5815 5812 5807 5798 5790 5782 5776 5771 5768 5764 5759 5753 5749 5747 5745 5743 5741 5740 5739 5737 5736 5735 5735 5735 5736 5737 5738 5736 5736 5736 5735 5735 5733 5733 5733 5732
5804 5795 5767 5753 5752 5759 5769 5768 5796 5827 5833 5832 5826 5819 5812 5805 5798 5790 5783 5778 5772 5768 5764 5760 5754 5749 5747 5744 5742 5741 5740 5740 5739 5738 5738 5737 5738 5738 5737 5737 5736 5736 5735 5735 5733 5733 5732 5732 5731
5798 5797 5806 5786 5777 5766 5773 5785 5802 5822 5823 5824 5819 5813 5808 5804 5798 5791 5785 5779 5774 5769 5765 5760 5754 5749 5747 5744 5742 5740 5740 5739 5738 5738 5739 5740 5740 5740 5737 5737 5735 5735 5734 5734 5733 5731 5731 5730 5729
5813 5808 5798 5782 5761 5755 5772 5775 5773 5787 5803 5813 5813 5809 5807 5804 5799 5792 5785 5780 5776 5771 5766 5761 5755 5750 5748 5745 5743 5741 5739 5738 5738 5737 5738 5739 5739 5740 5737 5736 5735 5734 5733 5732 5731 5730 5731 5728 5727
5801 5798 5793 5790 5786 5763 5755 5765 5792 5792 5802 5808 5813 5813 5809 5805 5799 5793 5786 5782 5777 5772 5765 5759 5754 5750 5747 5744 5742 5741 5738 5737 5737 5736 5737 5737 5737 5737 5735 5735 5734 5733 5732 5731 5729 5729 5729 5727 5725
5812 5802 5795 5773 5770 5777 5768 5770 5806 5805 5808 5814 5815 5814 5812 5807 5802 5795 5788 5781 5776 5770 5765 5759 5754 5750 5746 5744 5741 5739 5737 5736 5735 5735 5735 5736 5735 5735 5734 5734 5733 5731 5730 5729 5727 5726 5727 5725 5723